Temperature
22 23 22 21 20 20 19 19 19 19 19 19 19 19 19 19 19 19 19 19 19 19 19 19 19 20 20 20 20 20 20 20 20 20 20 20 20 20 20 19 18 18 19
23 23 22 21 20 20 19 19 19 19 19 19 19 19 19 19 19 19 19 19 19 19 19 19 19 20 20 20 20 20 20 20 20 20 20 20 20 20 20 19 19 19 19
24 24 22 21 21 20 19 19 19 19 19 19 19 19 19 19 19 19 19 19 19 19 19 19 19 19 20 20 20 20 20 20 20 20 20 19 19 20 20 20 19 19 19
24 23 22 21 21 20 19 19 19 19 19 19 19 19 19 19 19 19 19 19 19 19 19 19 19 19 19 20 20 20 20 20 20 20 19 18 18 19 19 19 19 19 19
23 23 23 22 21 20 20 19 19 19 19 19 19 19 19 19 19 19 19 19 19 19 19 19 19 19 19 19 19 20 20 20 20 20 19 18 18 19 19 19 19 19 19
22 22 23 22 21 21 20 20 20 20 20 20 19 19 19 19 19 19 19 19 19 19 19 19 19 19 19 19 19 19 19 19 19 19 19 18 18 18 18 18 18 19 19
22 22 23 22 22 21 21 20 20 20 20 20 20 20 19 19 19 19 19 19 19 19 19 19 19 19 19 19 19 19 19 19 19 19 18 18 18 18 18 18 18 18 18
22 22 23 23 22 21 21 21 20 20 20 20 20 20 20 19 19 19 19 19 19 19 19 19 19 19 19 19 19 19 19 19 19 18 18 18 18 18 18 18 18 18 18
23 22 23 23 22 22 21 21 20 20 20 20 20 20 20 20 19 19 19 19 19 19 19 19 19 19 19 19 19 19 19 19 19 19 18 18 18 18 18 18 18 18 18
23 22 23 23 22 22 21 21 21 20 20 20 20 20 19 19 19 19 19 19 19 19 19 19 19 19 19 19 19 19 18 19 19 19 19 18 18 18 18 18 18 18 18
24 22 22 22 22 22 21 21 21 21 20 20 20 20 19 19 19 19 19 19 19 19 19 19 19 19 18 19 19 18 18 18 19 18 18 18 19 19 18 18 18 18 18
24 22 22 21 21 21 20 20 21 21 21 20 20 20 20 19 19 18 18 18 19 19 19 19 19 18 18 18 18 18 18 19 18 18 19 19 19 19 19 18 19 19 18
23 23 22 21 21 21 20 20 20 20 20 20 20 19 19 19 19 19 19 19 19 19 19 19 19 18 18 18 18 18 18 18 18 19 19 19 19 19 19 19 19 19 18
23 23 22 21 21 21 21 21 20 20 20 20 20 19 19 19 19 19 19 19 19 19 19 19 18 18 18 18 18 18 18 18 18 19 19 19 19 19 19 19 19 19 19
23 22 22 21 21 21 21 21 21 20 21 20 20 20 19 19 19 19 19 19 19 19 19 19 19 18 18 18 18 18 18 19 19 19 19 19 19 19 19 19 19 19 19
23 22 22 21 21 20 21 21 21 21 21 21 21 20 20 19 19 19 19 19 19 19 19 19 19 19 18 18 18 19 19 19 19 19 19 19 19 19 19 19 19 19 19
24 23 22 21 21 20 20 20 21 20 20 21 20 20 20 20 19 19 19 19 19 19 19 19 19 19 19 19 19 19 19 19 19 19 19 19 19 19 19 19 19 19 19
24 24 22 22 21 20 20 20 20 20 20 21 21 20 20 20 19 19 19 19 19 19 19 19 19 19 19 19 19 19 19 19 19 19 19 19 19 19 19 19 19 18 18
24 24 23 22 21 20 20 20 20 20 20 20 21 20 20 20 19 19 19 19 19 19 19 19 19 19 19 19 19 19 19 19 19 19 19 19 19 19 19 19 19 19 18
23 23 22 21 21 20 20 20 20 20 20 20 20 20 20 20 19 19 19 19 19 19 19 19 19 19 18 18 18 18 18 19 19 19 20 20 19 19 19 19 19 19 19
22 22 21 21 20 20 20 20 20 19 20 20 20 20 20 20 19 19 19 19 19 19 19 19 18 18 18 18 18 18 19 19 19 20 20 20 19 19 19 19 19 19 19
21 21 20 20 20 19 19 19 19 19 19 19 19 19 19 19 19 19 19 19 18 18 18 18 18 18 18 18 17 17 17 18 20 20 20 20 20 19 19 19 19 19 19
20 20 19 19 19 19 19 19 19 19 19 19 19 19 19 19 19 18 18 18 18 18 18 18 18 17 17 17 17 17 16 17 18 19 20 20 19 19 19 19 19 19 18
19 19 19 18 18 18 18 18 18 18 18 18 18 18 18 18 18 18 18 18 18 17 17 17 17 17 16 17 17 16 16 16 16 17 18 18 18 18 18 18 18 18 18
19 19 18 18 18 18 18 18 18 18 18 18 18 18 18 18 17 17 17 17 17 17 17 16 16 16 16 16 16 16 16 16 16 16 16 17 17 17 17 17 17 17 17
20 19 18 18 17 17 17 17 17 17 17 17 17 17 17 17 17 17 17 16 16 16 16 16 16 16 16 16 16 16 16 16 16 16 16 16 16 17 17 17 17 17 17
Wind_Speed
19 21 23 18 17 17 17 17 16 15 13 12 11 11 11 10 10 10 10 10 10 10 10 11 11 11 11 11 11 11 11 11 10 10 10 10 9 8 8 7 4 12 11
23 22 23 20 18 17 17 16 15 15 14 13 11 10 10 9 9 8 7 8 8 8 9 9 9 9 9 9 8 8 7 7 6 6 7 9 8 7 6 6 11 12 10
23 22 22 20 19 17 17 16 15 14 14 13 11 10 9 8 7 7 6 5 6 6 6 6 7 7 6 6 6 6 5 3 2 3 6 8 10 8 6 5 8 8 7
22 21 21 21 19 17 16 15 15 14 13 13 11 10 9 8 7 6 5 4 4 4 4 4 4 4 4 4 4 4 3 3 4 6 9 11 12 11 9 6 4 5 4
20 20 22 21 19 18 16 15 14 14 13 12 11 10 9 8 7 7 6 5 4 4 3 3 3 3 3 3 3 4 4 5 7 10 13 7 12 15 12 8 6 5 5
20 21 23 21 19 18 16 15 14 13 13 12 11 10 9 9 8 7 7 6 5 5 4 3 3 3 3 4 5 6 6 7 9 12 14 10 10 16 14 11 8 8 8
20 21 22 21 20 18 16 15 14 14 13 12 11 10 9 9 8 8 8 7 6 6 5 5 5 5 5 6 7 7 8 9 11 14 14 11 9 19 16 13 10 10 11
21 21 21 21 20 18 16 15 14 14 13 12 11 10 9 8 8 8 8 8 8 7 7 6 7 7 7 8 9 10 10 12 12 13 15 12 10 20 17 14 12 10 11
21 21 18 19 18 17 16 15 14 14 13 12 11 10 10 9 9 9 9 9 9 9 8 8 8 9 10 11 11 12 13 14 14 14 16 13 14 21 17 15 12 11 12
20 20 17 17 17 16 15 15 15 14 13 12 11 11 11 10 11 12 12 13 12 11 11 11 11 12 13 14 15 15 16 15 15 16 16 15 16 20 17 14 13 12 13
16 17 17 17 15 16 16 17 16 14 14 13 12 13 12 12 14 15 17 17 17 15 14 14 14 15 15 17 19 20 17 14 16 16 16 13 18 19 16 15 14 14 15
13 15 15 16 15 14 14 16 15 15 15 15 14 15 14 14 13 14 19 21 20 19 17 17 18 17 16 15 18 23 15 16 17 15 13 16 20 19 17 16 15 16 16
10 12 12 14 12 13 9 12 11 12 14 16 16 16 15 13 13 12 10 15 18 18 16 16 17 15 15 13 11 9 14 14 12 12 10 18 20 19 17 17 16 17 18
12 12 12 12 10 8 7 8 8 8 8 10 16 17 13 7 6 6 4 9 12 12 12 11 8 12 12 11 10 8 10 10 10 9 8 18 20 20 19 18 18 19 19
12 11 10 10 10 7 6 4 8 7 8 9 11 16 13 7 8 7 4 3 4 5 4 4 4 4 4 6 8 8 7 8 10 12 10 18 22 22 21 20 20 20 21
15 14 12 11 10 8 7 5 5 5 5 6 6 12 15 9 5 5 5 4 3 4 4 2 3 3 4 5 7 7 7 9 10 12 13 15 23 25 24 23 23 23 22
14 13 11 11 10 10 9 9 8 7 7 6 5 9 12 11 7 5 4 4 4 4 2 1 3 3 5 6 7 9 9 8 8 9 11 11 14 22 26 25 25 25 24
9 10 11 12 13 11 10 8 8 8 7 5 6 7 10 11 9 5 5 5 4 3 2 3 3 3 4 5 6 8 9 8 9 8 10 11 13 14 20 28 27 26 25
5 6 8 8 9 11 11 9 9 7 7 5 4 4 6 10 10 5 6 5 3 3 3 5 3 3 4 5 6 8 9 10 10 12 10 9 10 12 12 18 28 28 27
1 3 4 6 5 5 7 8 8 9 8 6 6 4 5 6 8 6 5 6 5 4 4 4 4 3 4 5 8 9 9 11 10 10 11 9 7 10 13 14 16 22 27
5 3 1 2 4 5 5 7 8 9 8 7 7 7 6 6 7 6 6 6 6 5 5 5 4 4 4 4 5 6 8 12 13 11 10 9 9 7 8 9 9 12 15
7 7 5 4 4 5 5 6 6 7 7 7 7 7 6 7 7 8 7 6 7 6 6 6 5 4 4 4 3 4 5 7 8 8 5 6 6 5 5 5 4 7 8
7 7 6 6 6 6 6 6 7 6 7 8 8 7 8 8 7 7 8 7 6 6 6 7 6 6 5 4 4 4 4 4 5 6 6 3 2 2 3 4 4 4 6
5 6 5 5 6 6 6 6 7 8 9 9 7 7 7 8 9 8 8 8 7 6 7 7 7 5 5 5 4 5 7 6 4 5 5 5 5 5 4 5 5 4 3
5 5 5 5 5 6 6 7 7 8 8 7 7 7 6 7 8 8 8 7 6 7 7 7 5 5 5 5 4 4 5 6 7 5 6 5 5 4 3 4 4 4 3
4 4 4 4 5 5 6 7 7 8 9 10 9 8 6 5 6 8 8 7 7 7 7 6 6 5 5 4 4 5 4 3 3 3 4 5 5 4 3 2 3 3 2
Wind_Direction
128 137 137 136 136 139 140 139 138 137 136 135 131 127 121 116 110 103 96 92 90 89 88 88 88 88 85 82 81 81 83 85 91 97 100 99 95 90 84 72 72 104 100
129 137 138 137 137 139 141 141 141 141 141 140 138 136 132 127 121 114 106 99 94 91 91 91 92 95 96 97 98 98 98 101 110 122 129 129 121 108 87 52 50 102 103
127 136 139 138 138 139 140 141 142 144 145 144 143 142 141 138 135 130 122 114 106 101 98 97 98 102 106 111 115 119 121 129 165 187 192 179 147 137 116 85 83 101 110
128 140 141 140 140 140 140 142 143 144 146 147 147 147 148 151 152 150 145 139 131 121 115 113 114 118 124 132 141 151 167 207 254 263 245 221 165 150 141 129 121 126 137
133 140 139 144 142 143 144 144 145 146 147 150 152 154 157 160 163 164 163 162 161 155 150 145 142 148 160 174 187 201 218 241 265 273 271 252 147 155 156 159 172 182 187
138 138 144 148 147 148 150 151 151 151 152 155 158 162 167 170 172 173 175 176 180 181 184 186 190 195 202 212 221 229 239 251 267 265 261 253 164 162 164 171 189 205 210
141 137 148 151 152 154 157 159 159 159 160 162 165 169 174 179 183 183 184 187 194 200 207 213 218 222 224 230 237 243 248 254 261 274 277 262 177 165 170 178 193 213 220
139 138 148 154 156 160 164 167 167 166 167 169 171 175 180 185 191 193 195 200 206 213 220 225 228 233 234 236 241 246 251 258 261 263 265 260 193 172 178 185 195 212 225
139 138 150 157 161 166 170 173 174 174 176 178 181 185 190 195 201 205 208 211 215 220 225 231 234 238 240 241 242 246 250 253 265 275 275 264 199 180 184 192 203 218 232
137 142 155 159 163 169 176 181 183 184 186 189 193 197 201 207 213 216 217 217 219 222 227 233 239 243 245 245 244 245 247 253 255 259 261 261 193 181 187 196 209 224 237
144 147 159 161 167 176 182 183 186 191 196 198 203 208 212 218 218 216 222 217 216 220 225 232 239 244 248 250 247 243 243 245 252 250 250 237 185 183 191 201 214 227 237
155 154 164 163 172 184 192 173 185 194 196 204 208 204 210 226 234 227 214 212 213 218 224 230 237 243 246 251 249 237 235 239 247 253 248 194 180 187 196 206 217 229 237
168 168 170 162 174 187 195 166 189 198 191 200 216 208 208 221 229 233 203 200 210 217 224 231 232 236 239 239 251 230 223 243 247 251 242 187 187 193 202 211 221 230 237
181 185 181 164 172 201 204 183 188 200 191 195 203 209 207 212 231 233 213 193 201 211 213 226 217 218 231 244 247 247 235 242 255 259 229 190 193 201 210 217 224 231 236
183 193 186 170 170 196 233 232 200 205 204 200 198 199 211 208 210 225 226 212 234 244 213 215 238 235 238 251 255 256 250 249 253 257 245 202 203 208 214 220 225 231 235
185 196 191 179 175 185 211 233 260 237 214 225 204 194 200 213 212 212 206 198 223 259 276 264 264 272 266 264 270 269 261 256 253 249 245 220 212 214 217 221 225 229 232
188 192 184 181 185 188 209 219 231 242 243 222 220 210 196 204 213 208 217 203 210 236 258 274 286 295 283 281 281 278 270 255 252 250 248 244 229 222 223 225 226 228 229
190 181 182 197 193 190 202 218 231 238 240 233 215 213 202 206 214 202 210 216 212 218 225 238 245 261 273 283 287 287 284 278 267 257 249 241 239 239 227 225 227 228 228
184 173 179 204 201 192 201 214 234 251 256 260 243 216 203 202 212 207 215 217 214 222 237 255 252 257 268 275 280 277 273 268 265 265 258 251 242 236 234 223 221 224 226
102 168 179 196 219 206 208 220 230 242 246 244 251 244 222 210 210 209 216 217 219 229 230 235 253 258 264 269 279 283 287 283 272 264 261 260 253 246 241 239 220 221 222
16 4 284 248 253 248 241 236 235 238 242 245 243 239 229 223 215 209 225 214 213 224 232 234 240 252 256 262 274 281 278 275 267 254 243 241 248 250 249 241 221 210 215
7 1 353 333 299 275 261 259 257 262 262 254 251 245 228 218 215 219 219 223 217 217 222 227 225 234 254 253 259 286 289 282 279 278 250 231 242 247 258 264 243 219 216
2 354 350 346 329 314 299 283 278 273 264 262 253 241 231 226 218 220 224 226 226 223 226 222 218 223 235 247 238 241 269 277 321 306 312 310 320 316 296 300 282 246 235
350 344 348 344 335 327 316 301 289 277 271 269 269 259 247 232 228 225 223 222 224 224 228 229 222 222 230 246 258 246 251 270 280 302 314 341 347 329 317 310 315 309 279
336 334 333 338 334 328 320 308 297 290 285 285 281 272 259 244 235 230 225 223 223 226 227 228 232 224 226 239 255 272 268 263 246 255 288 314 319 308 306 310 314 324 339
308 311 315 319 318 317 312 309 304 299 297 295 289 278 265 248 238 234 228 220 220 224 221 218 218 225 227 238 256 270 273 274 282 261 277 301 303 302 302 319 333 340 1
Height
1509 1511 1515 1518 1520 1523 1525 1528 1530 1532 1534 1536 1538 1540 1541 1543 1544 1545 1547 1548 1549 1550 1551 1551 1552 1553 1553 1554 1555 1556 1556 1557 1557 1558 1558 1558 1558 1557 1557 1557 1557 1558 1558
1507 1512 1515 1518 1521 1524 1527 1529 1531 1534 1536 1537 1539 1541 1543 1544 1545 1547 1548 1549 1550 1551 1552 1553 1554 1554 1555 1555 1556 1557 1557 1558 1559 1559 1559 1560 1560 1560 1559 1559 1559 1560 1560
1508 1512 1516 1519 1522 1525 1528 1530 1533 1535 1537 1539 1540 1542 1544 1545 1547 1548 1549 1550 1551 1552 1553 1554 1555 1555 1556 1556 1557 1558 1558 1559 1560 1560 1560 1560 1561 1561 1561 1561 1561 1561 1561
1509 1513 1517 1520 1523 1526 1528 1531 1533 1536 1538 1539 1541 1543 1544 1546 1547 1548 1550 1551 1552 1553 1554 1555 1555 1556 1556 1557 1557 1558 1559 1559 1560 1560 1560 1561 1561 1562 1562 1562 1562 1562 1562
1511 1515 1517 1521 1524 1527 1529 1532 1534 1536 1538 1540 1542 1543 1544 1546 1547 1548 1550 1551 1552 1553 1554 1555 1555 1556 1556 1557 1557 1558 1558 1559 1560 1560 1561 1562 1562 1561 1562 1562 1562 1562 1562
1513 1515 1518 1521 1525 1527 1529 1532 1534 1536 1538 1540 1542 1543 1545 1546 1547 1548 1549 1551 1552 1553 1554 1555 1555 1556 1556 1556 1557 1557 1558 1558 1559 1559 1560 1562 1561 1560 1561 1561 1561 1561 1561
1514 1515 1519 1522 1525 1527 1529 1532 1534 1536 1538 1540 1542 1543 1545 1546 1547 1548 1549 1550 1551 1552 1553 1554 1555 1555 1555 1556 1556 1556 1556 1557 1557 1557 1558 1560 1560 1559 1559 1559 1560 1560 1560
1514 1515 1519 1522 1525 1527 1529 1532 1534 1536 1538 1540 1542 1543 1544 1546 1547 1548 1549 1550 1551 1552 1553 1553 1554 1554 1555 1555 1555 1555 1555 1555 1555 1556 1556 1557 1558 1557 1557 1558 1558 1558 1558
1515 1515 1519 1522 1525 1527 1529 1531 1534 1536 1538 1540 1541 1543 1544 1545 1546 1547 1548 1549 1550 1551 1552 1553 1553 1553 1553 1553 1553 1553 1553 1553 1553 1553 1553 1555 1555 1555 1555 1555 1555 1555 1556
1515 1515 1519 1521 1524 1526 1529 1531 1533 1535 1537 1539 1540 1542 1543 1544 1545 1546 1547 1548 1549 1550 1551 1551 1551 1552 1552 1552 1551 1551 1551 1550 1550 1550 1550 1551 1552 1552 1552 1552 1552 1552 1553
1516 1516 1518 1520 1523 1525 1528 1530 1532 1534 1536 1538 1539 1540 1542 1543 1544 1545 1546 1547 1548 1549 1549 1549 1549 1549 1549 1549 1549 1549 1548 1547 1547 1547 1548 1549 1549 1549 1549 1549 1549 1549 1549
1516 1517 1519 1519 1522 1524 1527 1529 1531 1533 1534 1536 1537 1538 1540 1541 1542 1543 1544 1545 1545 1546 1546 1547 1547 1547 1547 1546 1546 1546 1546 1545 1545 1545 1546 1546 1546 1546 1546 1546 1545 1545 1545
1515 1517 1519 1519 1521 1524 1527 1527 1529 1531 1532 1533 1535 1536 1538 1539 1540 1542 1542 1542 1543 1543 1544 1544 1544 1544 1544 1544 1544 1545 1544 1544 1544 1544 1543 1543 1543 1543 1542 1542 1542 1541 1542
1513 1516 1518 1519 1519 1522 1525 1527 1528 1530 1531 1531 1532 1534 1535 1536 1538 1540 1541 1541 1540 1541 1541 1541 1542 1542 1542 1543 1543 1543 1542 1542 1542 1541 1541 1540 1539 1539 1539 1538 1538 1537 1537
1511 1513 1515 1517 1517 1519 1522 1525 1526 1528 1530 1530 1530 1531 1532 1534 1535 1536 1538 1538 1539 1540 1540 1539 1540 1540 1540 1540 1540 1540 1540 1539 1539 1538 1537 1536 1535 1535 1534 1534 1533 1533 1533
1508 1511 1513 1514 1515 1516 1519 1521 1523 1525 1527 1528 1529 1528 1528 1530 1532 1533 1533 1534 1534 1535 1536 1536 1536 1536 1536 1536 1536 1536 1536 1535 1535 1534 1533 1532 1531 1530 1530 1529 1529 1529 1529
1506 1508 1510 1511 1512 1513 1515 1517 1520 1521 1523 1524 1525 1526 1526 1526 1527 1528 1529 1529 1529 1530 1530 1531 1531 1531 1531 1532 1532 1531 1531 1531 1530 1529 1529 1528 1527 1526 1525 1525 1525 1524 1524
1505 1507 1508 1510 1511 1511 1512 1514 1516 1518 1520 1521 1522 1522 1522 1522 1523 1523 1524 1524 1525 1525 1526 1526 1527 1526 1526 1527 1527 1527 1526 1526 1525 1524 1523 1522 1522 1521 1520 1520 1520 1520 1520
1504 1505 1506 1508 1510 1510 1510 1511 1512 1514 1515 1516 1517 1518 1518 1517 1518 1519 1519 1520 1521 1521 1521 1522 1522 1522 1522 1522 1522 1522 1521 1520 1519 1519 1518 1517 1516 1516 1516 1515 1515 1515 1515
1502 1503 1504 1505 1507 1507 1507 1508 1508 1509 1510 1511 1512 1513 1513 1513 1513 1513 1514 1515 1516 1516 1517 1517 1516 1517 1517 1518 1517 1516 1516 1514 1514 1513 1512 1512 1511 1511 1510 1510 1509 1508 1509
1501 1501 1502 1503 1503 1504 1504 1504 1504 1504 1505 1506 1506 1507 1508 1508 1508 1509 1509 1509 1509 1510 1511 1511 1511 1511 1511 1513 1512 1511 1510 1509 1508 1507 1506 1505 1505 1505 1505 1504 1504 1503 1503
1500 1500 1500 1500 1500 1500 1500 1500 1500 1500 1500 1501 1501 1501 1502 1502 1502 1503 1503 1504 1504 1504 1504 1505 1505 1505 1505 1507 1507 1507 1505 1505 1504 1503 1501 1501 1501 1501 1500 1500 1499 1499 1498
1500 1500 1499 1498 1497 1497 1496 1496 1496 1495 1495 1495 1495 1495 1495 1496 1496 1496 1497 1497 1497 1497 1498 1498 1499 1499 1500 1501 1503 1504 1503 1501 1500 1499 1498 1498 1497 1496 1496 1496 1495 1495 1494
1500 1499 1498 1496 1495 1494 1493 1492 1491 1490 1489 1489 1489 1489 1489 1489 1490 1490 1490 1490 1491 1491 1492 1492 1492 1493 1494 1496 1497 1498 1499 1499 1499 1496 1495 1494 1493 1492 1491 1491 1490 1490 1489
1500 1498 1497 1495 1493 1492 1490 1489 1488 1486 1485 1484 1484 1483 1482 1483 1483 1483 1483 1484 1484 1484 1486 1486 1487 1487 1489 1490 1492 1493 1493 1494 1494 1494 1491 1490 1489 1488 1487 1486 1486 1486 1486
1498 1496 1495 1493 1491 1489 1487 1486 1484 1482 1480 1479 1478 1477 1477 1477 1477 1477 1477 1477 1478 1479 1479 1480 1481 1483 1484 1485 1486 1488 1489 1490 1490 1489 1488 1487 1486 1485 1483 1482 1482 1482 1482